OpenBCM V2.0.3 (Linux)

Packet Radio Mailbox

IZ3LSV

[San Dona' di P. JN]

 Login: GUEST





  
I0OJJ  > AMSAT    24.06.26 07:09l 325 Lines 15359 Bytes #999 (0) @ WW
BID : A5QAA_I0OJJ
Read: GUEST
Subj: 2Line Orbital Elements
Path: IZ3LSV<I0OJJ
Sent: 260624/0026z @:I0OJJ.ITA.EU [Rome] $:A5QAA_I0OJJ

>From i0ojj@i0ojj.ampr.org Wed Jun 24 02:26:28 2026
Received: from i0ojj.ampr.org by i0ojj.ampr.org (JNOS2.0q.1) with SMTP
	id AA17063506 ; Wed, 24 Jun 2026 02:26:28 +0200
Received: by i0ojj.ampr.org with SMTP
	id AA17063503 ; Wed, 24 Jun 2026 02:26:01 +0200
Message-Id: <17063504@i0ojj.ampr.org>
>From: i0ojj@i0ojj.ampr.org

SB KEPS @ AMSAT  $ORB26175.1
2Line Orbital Elements 26175.AMSAT

QST de W1STR

AMSAT Orbital Elements for Amateur Satellites in TLE Format
>From Orbital Analysis Office
New England Sci-Tech STEM Education Center
Natick MA June 24, 2026
To all radio amateurs


These element sets describe the orbits of various satellites 
in use by the amateur radio community. For details see:
www.amsat.org/keplerian-elements-formats/

A daily update of element sets is available at:
www.amsat.org/tle/daily-bulletin.txt
or without bulletin text:
www.amsat.org/tle/dailytle.txt


AO-07
1 07530U 74089B   26173.50999495 -.00000042  00000-0  26889-4 0  9996
2 07530 101.9899 186.8122 0012626 120.2640  33.9567 12.53698175361183
UO-11
1 14781U 84021B   26173.65809851  .00001018  00000-0  10915-3 0  9996
2 14781  97.8059 139.1716 0008115 155.4224 204.7383 14.90794156257947
LO-19
1 20442U 90005G   26173.34484693  .00000069  00000-0  41171-4 0  9999
2 20442  98.8847 195.2926 0011417 185.6168 174.4890 14.34124429903134
AO-27
1 22825U 93061C   26173.45393392  .00000057  00000-0  38710-4 0  9990
2 22825  98.6878 240.8657 0009549  86.2752 273.9523 14.30943433707757
FO-29
1 24278U 96046B   26173.48650619 -.00000020  00000-0  12357-4 0  9991
2 24278  98.5236  21.6325 0350930  82.7220 281.3662 13.53274621473880
GO-32
1 25397U 98043D   26173.68382816  .00000037  00000-0  36155-4 0  9995
2 25397  99.0069 166.5812 0001326 152.1038 208.0212 14.24429238452119
ISS
1 25544U 98067A   26173.73662978  .00008151  00000-0  15395-3 0  9998
2 25544  51.6325 272.6245 0004456 218.9710 141.0958 15.49373286572616
NO-44
1 26931U 01043C   26173.60725152  .00000029  00000-0  41662-4 0  9990
2 26931  67.0498 230.2533 0006057 264.8434  95.1977 14.31957590291222
SO-50
1 27607U 02058C   26173.21270606  .00000697  00000-0  99777-4 0  9995
2 27607  64.5516 113.4366 0075144 261.5322  97.7262 14.83055677265201
CO-55
1 27844U 03031E   26173.72726103  .00000201  00000-0  10595-3 0  9995
2 27844  98.6736 182.2165 0009866 162.2410 197.9116 14.24338450192466
RS-22
1 27939U 03042A   26173.85795519  .00001035  00000-0  16757-3 0  9995
2 27939  98.3477 358.3770 0009961 249.2406 222.3722 14.73476485216384
CO-65
1 32785U 08021C   26173.81711056  .00004099  00000-0  25978-3 0  9990
2 32785  97.8280 155.3526 0009270  21.9068 338.2554 15.09498177986040
CO-66
1 32791U 08021J   26173.42331423  .00013901  00000-0  43974-3 0  9998
2 32791  97.7527 171.5713 0000371 315.0344  45.0867 15.32901579988093
RS-30
1 32953U 08025A   26173.81240424  .00000007  00000-0 -19660-4 0  9995
2 32953  82.5048 351.9401 0018658 300.9406  58.9840 12.43179500820392
SRMSAT
1 37841U 11058D   26172.95148441  .00000351  00000-0  46373-4 0  9998
2 37841  19.9733  30.6303 0011715 256.2995 137.7067 14.11576407758495
ZACUBE-1
1 39417U 13066B   26173.33975722  .00002077  00000-0  16390-3 0  9995
2 39417  97.8063 135.7033 0041483 229.9888 129.7692 15.01210891681501
Delfi-N3xt
1 39428U 13066N   26173.53210427  .00004643  00000-0  40616-3 0  9992
2 39428  97.8335  93.8382 0074029 187.4140 172.5992 14.95123908675424
GOMX-1
1 39430U 13066Q   26173.83766495  .00001427  00000-0  21904-3 0  9995
2 39430  97.6484  13.9436 0129963  59.6466 301.7518 14.69476850670740
LO-74
1 39440U 13066AA  26173.42199251  .00003222  00000-0  29961-3 0  9997
2 39440  97.8906 122.4220 0057991  11.9910 348.2675 14.93801192677773
AO-73
1 39444U 13066AE  26173.42589928  .00004268  00000-0  26631-3 0  9997
2 39444  97.8272 144.9807 0036208 182.8900 177.2125 15.09537633680451
DTUSAT-2
1 40030U 14033W   26173.71971870  .00004933  00000-0  26749-3 0  9997
2 40030  98.0871 171.7981 0007144 203.6150 156.4753 15.15075474653520
LILACSAT-2
1 40908U 15049K   26173.81883747  .00014505  00000-0  24595-3 0  9998
2 40908  97.4644 210.8748 0005962 219.1235 140.9587 15.51603659596625
Horyu-4
1 41340U 16012D   26172.93363152  .00557871  12891-3  10041-2 0  9997
2 41340  30.9840  44.0609 0007233 302.1792  57.8169 16.00402984571575
Lapan A3
1 41603U 16040E   26173.86954576  .00002558  00000-0  82168-4 0  9993
2 41603  97.1491 169.8284 0010184   6.3111 353.8258 15.33134574555680
CAS-2T
1 41847U 16066G   26173.85069890  .00001272  00000-0  18516-3 0  9993
2 41847  98.3820 249.5224 0342905 112.3536 251.4371 14.44710015505615
TechnoSat
1 42829U 17042E   26173.70129223  .00002347  00000-0  16900-3 0  9999
2 42829  97.4297 331.1496 0019324  77.1054 283.2330 15.04990658487530
AO-91
1 43017U 17073E   26173.56579702  .00005824  00000-0  25602-3 0  9990
2 43017  97.4701  40.6703 0148970 310.5186  48.3145 15.12782562466200
S-Net D
1 43186U 18014G   26173.47595817  .00004009  00000-0  20784-3 0  9998
2 43186  97.5356  78.2333 0008351  13.7273 346.4185 15.16713673459565
S-Net B
1 43187U 18014H   26173.48751456  .00004044  00000-0  20981-3 0  9991
2 43187  97.5362  78.2315 0008835   8.1759 351.9616 15.16683517459560
S-Net A
1 43188U 18014J   26173.47480711  .00004057  00000-0  21025-3 0  9998
2 43188  97.5373  78.4286 0008736   9.0846 351.0543 15.16722102459563
S-Net C
1 43189U 18014K   26173.29349048  .00003892  00000-0  20205-3 0  9991
2 43189  97.5389  78.3239 0009888   0.7048 359.4197 15.16673916458080
Ten-Koh
1 43677U 18084G   26173.78273337  .00001084  00000-0  85548-4 0  9994
2 43677  98.0766   6.3826 0011482  98.1388 262.1139 15.02957895417000
PO-101
1 43678U 18084H   26173.83829685  .00002136  00000-0  17463-3 0  9993
2 43678  98.1199  10.2927 0012867 152.1678 208.0235 15.00474712417061
QO-100
1 43700U 18090A   26173.82103547  .00000147  00000-0  00000-0 0  9993
2 43700   0.0147 298.5974 0001997 189.9310 103.8271  1.00272503 27730
MinXSS-2
1 43758U 18099A   26173.20165439  .00027476  00000-0  54096-3 0  9996
2 43758  97.4529 249.6341 0007053 235.6616 124.3967 15.47188090414901
AO-95
1 43770U 18099N   26172.66553232  .00008295  00000-0  31754-3 0  9995
2 43770  97.4381 232.8956 0007503 340.7571  19.3384 15.26789061413902
SNUSat 2
1 43782U 18099AA  26173.06736365  .00005670  00000-0  25191-3 0  9995
2 43782  97.4057 226.3761 0008514 277.9921  82.0349 15.21897280413771
SnugLite
1 43784U 18099AC  26172.66460535  .00008295  00000-0  31328-3 0  9990
2 43784  97.3864 226.9006 0001293 253.1353 106.9744 15.27259002414000
ITASat 1
1 43786U 18099AE  26173.09375829  .00005153  00000-0  24832-3 0  9993
2 43786  97.4028 224.5076 0011561 342.4517  17.6316 15.19106341413650
EAGLET 1
1 43790U 18099AJ  26173.07929043  .00003175  00000-0  18347-3 0  9995
2 43790  97.4229 222.6184 0010181 336.5014  23.5750 15.12968848413075
ESEO
1 43792U 18099AL  26173.56843330  .00001154  00000-0  87022-4 0  9997
2 43792  97.3977 210.7265 0010654 321.7216  38.3253 15.04263935412616
JO-97
1 43803U 18099AX  26173.44568534  .00013019  00000-0  40045-3 0  9993
2 43803  97.4130 236.2984 0004684 237.9316 122.1473 15.33791959414439
Suomi 100
1 43804U 18099AY  26173.44363777  .00009480  00000-0  34391-3 0  9990
2 43804  97.4187 233.8176 0008499 256.5197 103.5096 15.28515557414223
ISAT
1 43879U 18111D   26173.78629374  .00079862  00000-0  77152-3 0  9995
2 43879  97.5866 109.4405 0002489 163.7796 196.3544 15.66201824412047
UWE-4
1 43880U 18111E   26173.52166677  .00027166  00000-0  54968-3 0  9991
2 43880  97.5841 102.1592 0004611 316.7180  43.3706 15.46410589411605
Sparrow
1 43881U 18111F   26173.34045526  .00140651  00000-0  90057-3 0  9995
2 43881  97.6105 114.6750 0004495 123.6535 236.5159 15.75880275412180
Prox-1
1 44339U 19036A   26173.41245167  .00010432  00000-0  10081-2 0  9993
2 44339  23.9949  79.3420 0005879  95.8503 264.2667 14.90717291374250
Taurus 1
1 44530U 19059C   26173.81626810  .00004141  00000-0  66596-3 0  9996
2 44530  98.6425 338.9933 0007234 295.3206  64.7249 14.72141919359472
TO-108
1 44881U 19093C   26173.83362181  .00001081  00000-0  12792-3 0  9992
2 44881  97.7526 245.9281 0015085  70.3444 289.9398 14.86528590352258
RS-44
1 44909U 19096E   26173.71242865  .00000026  00000-0  50721-4 0  9992
2 44909  82.5223 336.0326 0218361 131.2961 230.7169 12.79748918303052
SALSAT
1 46495U 20068K   26173.31277948  .00005705  00000-0  20010-3 0  9997
2 46495  97.8856 176.6896 0007816 286.6046  73.4334 15.29860164316141
CSS (TIANHE-1)
1 48274U 21035A   26173.79934437  .00019288  00000-0  22604-3 0  9996
2 48274  41.4690 287.8422 0007496 126.6013 233.5516 15.61031089294047
CUTE
1 49263U 21088D   26173.52412253  .00144826  10192-4  38441-3 0  9991
2 49263  97.4184 273.3413 0007649 221.0406 139.0294 15.94619336263403
TeikyoSat 4
1 49396U 21102B   26173.68888123  .00001500  00000-0  97279-4 0  9994
2 49396  97.3667 202.9585 0010317 274.6986  85.3065 15.09523985253550
Z-Sat
1 49399U 21102E   26173.86591870  .00002011  00000-0  10107-3 0  9999
2 49399  97.3325 209.0166 0015244 222.7188 137.2863 15.18295152254308
KOSEN 1
1 49402U 21102H   26173.38452549  .00005705  00000-0  21818-3 0  9994
2 49402  97.3186 215.4408 0013771 181.8173 178.3018 15.26894284254814
HO-113
1 50466U 21131B   26173.81639551  .00000409  00000-0  13998-3 0  9992
2 50466  98.4977 266.1759 0005385  84.1044 276.0759 14.41361831235924
SNUGLITE 2
1 52899U 22065F   26173.63412238  .00000637  00000-0  12984-3 0  9999
2 52899  98.2209 318.4550 0007630  17.0111 343.1346 14.64355421211797
UmKA 1 (RS40S)
1 57172U 23091G   26173.81807955  .00004662  00000-0  21365-3 0  9997
2 57172  97.5048 232.4937 0014338 100.3140 259.9713 15.20872074164862
